STARLINK-32876, 63151

Orbit data source: Space-Track

STARLINK-32876, 63151 is a payload satellite owned by SpaceX/Seattle (US) in LEO that was launched on Mon, 03 Mar 2025 UTC via an FALCON 9 launch vehicle from the Air Force Eastern Test Range (AFETR). Payload-class satellites include a variety of spacecraft equipped with specific instruments for various scientific and technological missions. These include communications satellites like Starlink; space stations such as the ISS; scientific satellites like the Hubble; Earth observation satellites from companies like Planet Labs, Umbra, and HawkEye 360; GPS; miniature CubeSats for education and research; and military/defense satellites.

Loading next visibility...
Identifier
63151, 2025-043V
Orbit
LEO
Country
Flag of USUS
Related business
Manufacturer
SpaceX/Seattle
Mission
Operational Commercial Communications
Bus & Motor
STARLINK V2M, Unknown motor
Mass
730 kg wet, ~700 kg dry
Launch date (UTC)
2025-03-03 (8 months ago)
Launch vehicle
FALCON 9
Launch site
Air Force Eastern Test Range (AFETR)
Object type
Payload
Rocket body
Debris
Shape & HBR
Box + 2 Pan, 17.7 m
Radar Cross Section
33.884 m², Large (>1 m²)

Expand to show TLE details & history
Last TLE update: 19 hours ago

TLE from 19 hours ago
0 STARLINK-32876
1 63151U 25043V   25305.57188736  .00039873  00000-0  14490-2 0  9990
2 63151  42.9979  19.3165 0001408 264.4233  95.6458 15.27618439 37777
Epoch: 2025-11-01T13:43Z
TLE epoch observation values (Epoch: 2025-11-01T13:43:31.067Z)
Latitude
-0.00004°
Longitude
132.33696°
Altitude
482.804 km
Speed
7.626 km/s
True Right ascension
01h 17m 15s
True Declination
0° 00' 00"
Sunlit
Object was in full shadow at epoch
Visualization orbit readout
Latitude
Unknown
Longitude
Unknown
Altitude
Unknown
Speed
Unknown
Apparent Right ascension
Unknown
Apparent Declination
Unknown
Sunlit
N/A
Visualization observer readout
Local Sidereal Time
04:06:30
Azimuth
Unknown
Elevation
Unknown
Doppler factor
Unknown
Orbital elements
Apogee altitude
485.846 km
Perigee altitude
483.913 km
Semi-major axis
6,863.017 km
Eccentricity
0.00014
Inclination
42.9979°
RAAN
19.3165°
Arg. of periapsis
264.4233°
True anomaly
95.66186°
Mean anomaly
95.6458°
Eccentric anomaly
95.65383°
Mean motion
3.81743 °/min
Orbital period
94.3 mins
BSTAR
0.001449
Loading maneuver chart data...
Computing Atmospheric mass density...
Loading historical data...
Loading historical data...
Loading historical data...
Loading historical data...
Loading historical data...
Loading historical data...
Loading historical data...

Documentation

Showing up to 5 results
|